Wind_Speed
19 18 18 17 16 17 17 16 17 19 19 17 17 19 18 18 20 20 20 20 18 17 17 17 17 17 17 18 18 17 18 17 17 17 15 16 15 15 15 14 15 18 21 21 18 8 4 7 8 9 10 11
21 19 19 18 17 18 18 17 17 20 20 18 19 20 19 19 21 22 21 20 18 18 18 18 17 18 19 19 18 18 18 18 18 17 17 18 16 17 16 15 20 22 22 22 21 14 8 8 9 10 11 11
21 21 21 20 20 19 19 19 19 20 20 20 21 21 21 22 23 24 23 21 20 20 19 19 18 18 20 20 18 18 18 19 20 19 18 20 18 17 16 19 24 24 24 24 24 20 14 12 12 11 12 12
19 20 21 21 21 21 21 21 21 22 21 21 24 23 23 23 24 25 25 24 23 22 21 21 21 19 20 20 19 19 20 20 20 20 20 20 18 18 18 20 25 24 25 26 28 25 18 17 15 14 14 13
17 18 19 20 20 21 21 22 23 24 23 23 24 25 26 26 26 26 27 27 26 25 23 23 23 21 21 20 19 20 21 21 20 20 20 20 20 21 22 22 25 26 25 25 28 25 20 20 17 16 16 15
17 18 19 19 20 21 22 23 25 25 25 25 25 26 27 28 27 28 28 29 29 28 25 25 26 23 21 21 20 20 20 21 22 23 23 22 22 22 24 26 28 28 26 26 27 23 20 19 17 17 17 16
15 18 20 20 21 21 21 23 26 27 27 27 27 27 28 29 28 28 29 30 30 30 27 27 28 27 24 22 21 21 22 22 24 25 24 23 23 22 23 28 31 30 28 27 28 23 19 17 16 16 16 17
14 13 16 19 20 21 20 20 23 26 29 29 29 28 28 30 29 28 29 30 29 29 29 29 29 29 28 22 22 24 25 26 25 23 23 22 23 23 25 30 32 32 32 30 31 25 15 14 16 15 15 16
14 15 15 15 17 20 21 21 21 22 26 29 30 29 29 31 31 30 30 29 28 28 28 28 30 31 32 27 26 29 27 27 27 25 24 24 24 26 28 32 32 32 34 32 32 25 14 14 15 14 15 15
11 15 17 17 16 17 20 21 23 23 22 24 28 30 29 29 32 33 31 29 29 30 30 29 30 32 36 33 29 31 30 28 28 28 28 27 27 27 29 31 28 26 29 29 26 19 13 14 13 13 14 14
7 10 13 16 18 18 18 19 23 25 24 23 24 28 30 29 30 31 31 31 31 32 33 33 32 32 36 37 32 32 33 31 28 28 28 29 29 29 30 31 27 24 24 23 20 15 13 15 14 13 13 13
6 5 7 10 14 18 20 21 21 24 26 26 25 26 28 30 31 31 30 31 33 34 35 35 34 33 35 37 36 34 35 34 31 29 28 28 30 31 30 30 28 25 24 22 19 16 15 16 15 14 14 13
11 7 8 8 10 13 16 20 22 23 25 28 28 27 27 30 31 31 32 33 33 35 36 36 35 35 35 37 37 37 38 36 33 32 29 28 29 30 31 30 28 27 26 24 22 19 18 17 16 15 15 15
20 17 12 11 11 12 13 15 19 22 25 26 28 29 28 31 32 32 34 35 34 36 37 37 37 36 36 37 38 39 39 38 37 34 32 30 29 30 30 30 29 28 27 26 25 23 21 19 18 17 17 16
22 22 20 17 14 13 14 15 16 19 22 25 27 28 28 29 32 33 35 36 35 37 38 38 38 37 38 39 38 39 39 39 39 38 36 33 32 31 30 29 29 29 29 28 27 26 24 22 20 19 19 18
24 22 21 21 20 17 15 16 18 19 21 23 25 27 28 28 30 32 34 36 35 35 35 37 38 37 38 41 41 40 39 39 39 39 39 37 35 33 32 31 31 31 30 30 29 28 27 25 24 22 21 21
28 26 23 21 20 20 19 18 17 19 21 23 25 26 28 29 29 30 32 35 36 36 35 34 37 38 39 42 43 41 40 39 39 39 39 40 39 37 36 35 34 33 31 31 30 30 29 28 26 24 23 23
31 30 28 25 22 20 20 19 18 18 18 20 24 26 28 28 30 30 30 33 36 38 37 34 36 40 41 42 43 42 41 41 40 40 40 41 41 40 39 38 36 35 33 32 31 31 31 30 28 27 26 25
30 30 31 30 27 24 20 20 19 18 18 17 19 23 27 28 29 31 30 31 35 37 38 36 34 37 39 40 43 43 42 42 42 41 41 42 42 42 40 39 38 37 35 33 33 32 32 31 30 29 29 27
27 28 30 30 30 28 24 21 18 17 18 18 17 18 22 27 29 30 29 29 33 36 38 38 36 35 36 38 41 43 43 43 43 43 43 43 44 44 43 41 40 39 37 36 35 34 33 33 32 31 30 29
26 25 27 27 28 28 28 24 20 17 17 19 18 17 17 21 26 29 30 28 29 33 37 39 38 35 35 37 40 42 44 45 45 45 45 45 46 46 45 43 42 41 39 38 37 36 36 35 34 33 32 31
24 23 24 25 24 24 25 25 23 20 20 21 20 18 17 18 21 24 30 31 28 29 34 38 40 37 35 35 39 42 44 45 46 46 46 47 48 47 47 45 44 43 42 40 39 38 37 37 36 34 33 32
21 22 24 24 22 21 22 23 22 22 22 22 21 19 20 21 22 21 25 31 33 30 30 33 38 40 37 34 36 39 42 45 46 47 48 48 49 48 48 47 46 44 43 41 40 40 39 38 37 36 35 34
21 22 23 22 21 21 21 20 19 21 22 22 20 20 22 25 25 23 22 26 31 34 34 33 34 37 39 37 35 36 40 44 46 48 48 48 49 49 48 47 46 45 43 41 39 38 38 37 37 36 36 35
23 23 22 21 21 22 22 20 19 19 19 19 20 22 24 26 26 26 24 23 25 30 35 37 37 36 38 39 37 36 38 41 45 46 48 49 49 49 49 48 47 46 42 40 38 36 35 35 35 35 35 36
23 22 22 22 24 24 24 22 20 19 19 20 22 24 26 24 25 27 26 25 25 25 28 33 37 39 40 40 38 36 35 37 42 45 46 48 49 50 50 50 49 48 45 43 43 39 34 31 31 33 34 35
24 24 24 25 26 26 28 27 24 23 23 23 24 24 25 24 23 25 26 26 26 26 26 26 30 34 38 41 41 39 35 33 36 42 44 46 49 49 49 49 49 49 50 48 44 39 35 34 32 28 33 38
26 26 26 26 27 27 29 29 28 27 25 25 24 22 22 23 22 23 24 24 25 27 27 27 27 29 31 35 39 42 41 36 33 37 41 43 46 48 48 48 49 49 51 50 46 41 35 32 29 27 35 42
27 27 27 27 28 28 28 29 29 29 27 24 23 22 21 20 19 21 22 22 23 25 26 27 28 28 27 28 32 39 45 43 38 35 38 41 42 46 49 48 48 48 49 51 52 48 38 28 26 32 36 34
27 27 28 28 29 29 29 30 30 30 29 26 24 23 24 24 24 23 23 22 22 22 24 26 27 28 28 28 28 33 40 44 43 38 36 39 40 43 47 48 45 45 48 50 51 52 48 39 37 38 31 25
27 28 29 29 30 31 30 32 32 30 29 28 26 24 25 27 29 29 28 26 22 21 22 24 26 27 28 29 29 30 35 40 43 42 39 38 39 39 42 45 45 46 47 49 50 51 51 47 42 37 33 30
Wind_Direction
227 227 231 233 234 236 230 224 225 225 217 210 218 220 220 219 218 220 216 216 214 212 212 211 209 207 208 208 199 199 205 202 202 202 201 203 202 200 199 208 215 218 228 240 245 228 187 198 192 196 196 197
233 233 237 239 241 242 238 231 229 232 221 206 215 220 218 221 224 226 221 219 217 214 212 211 209 206 206 208 203 201 205 203 203 204 203 203 203 200 195 210 223 225 234 243 243 239 242 232 211 208 207 204
244 242 244 246 247 247 246 241 235 235 223 204 212 221 220 223 227 228 226 221 217 214 214 212 210 208 205 204 205 204 204 206 205 204 206 204 203 201 195 213 228 230 236 241 245 241 237 238 223 215 216 211
256 257 255 252 250 249 249 247 241 238 230 210 209 218 221 224 227 229 228 223 217 214 214 215 212 207 205 203 204 205 203 208 210 209 209 206 201 202 201 216 233 237 239 240 244 240 229 229 221 216 218 214
258 265 270 265 257 253 251 249 245 241 235 220 210 214 220 224 227 228 228 227 225 219 213 216 219 211 205 203 204 206 203 203 209 213 212 207 205 206 203 212 232 238 237 237 241 233 215 217 214 214 216 212
257 258 266 270 268 263 258 252 248 244 239 230 218 213 217 223 228 229 230 230 231 229 218 214 224 225 212 201 202 207 203 201 204 210 212 207 207 208 202 210 227 234 233 232 238 227 203 209 211 209 213 210
256 257 259 263 269 270 268 256 248 245 242 237 229 220 216 221 228 231 232 232 233 234 228 218 221 229 224 203 200 209 203 204 208 206 209 207 207 205 201 213 223 230 234 232 237 229 201 206 214 207 211 210
243 251 258 261 265 269 272 264 254 248 243 240 237 229 219 219 226 230 232 234 236 238 235 225 218 224 231 210 197 216 209 202 208 205 206 206 206 203 202 216 222 225 232 234 238 236 212 210 216 211 212 211
253 244 247 254 260 264 267 265 261 258 250 243 239 236 226 220 223 227 231 234 238 240 237 231 222 219 229 219 199 213 216 204 204 203 206 207 207 206 206 219 224 224 229 233 238 239 228 222 220 216 218 217
287 268 256 250 250 257 263 262 259 260 260 251 243 239 231 223 223 225 228 232 234 237 239 238 233 223 226 225 209 209 217 213 207 203 206 208 210 211 212 222 230 229 228 230 234 234 232 234 230 225 226 227
308 303 285 265 251 248 253 258 258 256 258 258 251 243 236 226 222 225 225 225 229 233 237 239 240 234 228 228 219 209 215 219 215 211 210 208 210 215 218 224 231 233 231 228 230 232 237 241 238 232 231 234
292 288 294 285 264 252 247 249 254 255 254 253 249 247 245 234 224 226 225 222 226 231 235 237 240 240 233 230 225 214 214 218 220 220 218 212 211 216 223 227 230 232 232 233 237 241 244 246 244 239 236 235
342 306 277 277 274 265 255 251 251 253 255 254 248 243 243 240 231 229 229 226 226 230 233 235 237 238 236 233 229 220 216 218 221 224 224 219 216 219 225 229 230 231 234 238 243 247 248 249 249 247 245 241
0 350 329 300 279 267 261 258 256 253 252 255 256 251 244 240 235 229 229 230 229 228 230 233 235 236 236 236 231 224 220 219 220 224 226 225 224 224 228 232 234 235 237 241 245 248 250 252 252 251 250 248
1 357 351 340 321 292 269 258 257 254 250 249 253 258 257 251 244 234 229 231 231 229 229 230 233 234 234 235 233 227 225 223 221 222 225 228 231 232 233 235 237 239 240 242 245 248 251 252 252 251 252 251
356 355 350 346 341 329 307 282 267 258 253 249 247 250 254 257 257 250 241 235 232 232 231 229 232 235 233 233 234 231 229 228 225 222 221 224 228 232 235 235 236 240 242 244 246 248 249 251 252 252 252 252
346 348 347 344 338 332 328 316 299 279 265 256 251 248 247 250 254 257 255 247 239 234 233 231 233 236 234 232 234 233 231 230 228 225 221 220 223 226 230 233 235 237 240 244 246 248 248 249 251 252 251 252
340 338 339 340 336 329 323 319 317 306 289 270 258 251 248 248 249 252 255 253 247 241 239 236 233 234 234 233 234 234 233 231 229 227 223 221 222 225 228 231 233 235 238 241 244 247 248 249 250 250 250 251
336 333 332 332 331 329 322 315 314 313 305 292 273 259 249 246 249 251 253 254 250 245 242 242 239 234 234 234 234 234 235 234 231 228 225 224 224 226 228 231 233 235 237 239 242 245 248 249 250 249 250 251
331 327 328 328 326 324 320 314 308 304 302 297 288 276 259 248 246 247 251 258 256 248 242 242 243 239 237 236 234 235 235 234 232 230 227 225 226 227 228 230 232 235 237 238 241 244 246 248 249 249 250 250
327 321 321 324 322 318 315 312 303 291 285 287 285 283 274 257 248 243 243 251 258 255 247 241 241 242 240 238 237 237 236 235 235 233 230 227 227 229 231 231 233 235 236 237 239 241 243 246 248 249 250 249
321 314 314 317 316 310 308 308 304 292 279 277 279 278 276 265 256 249 241 241 248 253 251 246 243 243 242 241 241 240 238 237 237 236 234 231 229 230 231 233 234 235 237 237 238 240 242 245 247 248 248 248
313 307 308 312 309 303 300 300 298 292 284 279 275 269 267 263 259 256 246 240 240 242 245 245 244 243 243 242 243 242 239 238 237 236 235 233 231 231 232 235 236 236 237 237 236 238 241 243 245 246 246 247
307 302 305 310 306 301 299 295 288 286 289 289 279 261 256 260 261 261 255 245 239 238 238 240 242 242 242 241 243 244 241 238 236 235 234 233 232 231 231 232 234 234 234 233 233 235 238 240 241 244 246 247
304 303 305 308 307 306 303 296 289 285 287 289 284 271 264 262 263 262 259 253 245 240 239 240 241 241 240 239 241 246 247 242 239 236 235 233 232 232 231 230 229 229 229 227 226 226 229 234 238 241 244 246
300 302 303 303 303 304 302 300 296 288 282 279 278 279 280 275 269 266 260 255 252 246 242 241 241 241 240 238 237 242 247 246 239 235 233 231 229 230 231 231 230 226 223 222 221 220 217 221 230 236 240 243
298 299 299 300 301 300 299 299 298 294 289 283 277 276 282 286 281 276 271 262 255 250 245 240 239 239 239 238 236 235 240 244 239 234 232 230 229 228 227 229 229 227 225 223 219 214 211 215 217 222 232 237
299 300 300 299 299 298 296 296 297 298 296 292 286 280 280 287 285 282 283 277 265 256 250 244 241 240 239 239 237 234 234 237 238 235 233 232 231 228 225 224 224 226 228 225 218 208 206 212 209 213 229 230
300 301 302 302 301 299 297 295 296 298 297 293 289 283 279 278 278 282 289 289 281 268 259 253 248 244 241 238 235 233 233 233 235 237 235 233 232 229 226 225 222 222 223 224 224 218 210 205 205 218 229 228
304 304 304 304 303 302 299 296 295 295 295 292 287 284 281 276 272 274 277 282 286 282 273 266 257 248 243 239 234 231 233 233 232 234 235 233 233 233 229 227 223 219 220 222 224 225 223 223 224 225 223 216
308 308 307 305 303 301 299 297 294 293 293 291 288 285 285 283 278 275 271 268 272 279 282 279 269 257 246 242 238 230 230 233 232 233 235 232 231 233 232 229 225 223 220 218 219 222 225 227 230 232 227 220
Height
1489 1489 1489 1489 1489 1489 1490 1490 1491 1493 1495 1497 1498 1499 1499 1500 1500 1501 1501 1501 1501 1502 1502 1503 1503 1504 1506 1507 1508 1510 1511 1512 1513 1513 1514 1515 1516 1517 1518 1519 1518 1516 1516 1516 1516 1516 1517 1517 1517 1518 1519 1520
1488 1488 1488 1489 1489 1490 1490 1490 1490 1491 1492 1494 1495 1496 1497 1498 1498 1499 1500 1500 1500 1501 1501 1501 1501 1503 1504 1506 1507 1509 1510 1511 1511 1512 1513 1514 1515 1515 1517 1518 1515 1514 1515 1515 1514 1515 1516 1516 1516 1517 1517 1518
1487 1487 1487 1488 1488 1489 1489 1490 1490 1491 1492 1492 1494 1495 1496 1496 1497 1497 1497 1498 1499 1500 1500 1500 1500 1501 1502 1504 1506 1507 1509 1510 1510 1511 1512 1513 1514 1514 1516 1515 1512 1513 1513 1513 1513 1514 1515 1515 1515 1515 1516 1517
1486 1486 1486 1487 1487 1487 1488 1488 1489 1490 1491 1492 1493 1494 1495 1495 1495 1495 1496 1496 1497 1497 1498 1498 1498 1499 1500 1502 1504 1505 1507 1508 1509 1510 1511 1511 1513 1514 1515 1514 1511 1511 1512 1512 1511 1512 1514 1514 1514 1514 1515 1515
1486 1486 1485 1486 1486 1486 1487 1487 1487 1488 1489 1490 1491 1492 1493 1494 1494 1495 1495 1495 1495 1496 1496 1496 1496 1497 1497 1499 1502 1503 1504 1506 1508 1509 1509 1511 1512 1513 1514 1513 1510 1509 1509 1510 1509 1510 1512 1512 1512 1513 1513 1514
1486 1486 1485 1484 1485 1485 1485 1485 1486 1486 1487 1487 1488 1489 1490 1492 1492 1493 1494 1494 1494 1494 1495 1495 1495 1495 1495 1497 1499 1501 1502 1504 1505 1506 1507 1509 1510 1510 1512 1511 1508 1507 1508 1508 1507 1508 1511 1510 1511 1511 1512 1512
1485 1485 1485 1484 1483 1483 1483 1483 1484 1484 1485 1485 1486 1487 1487 1489 1490 1491 1492 1492 1493 1493 1494 1494 1494 1494 1494 1495 1497 1498 1500 1501 1502 1504 1504 1506 1507 1508 1509 1508 1506 1506 1506 1507 1506 1507 1509 1509 1509 1510 1511 1511
1483 1484 1484 1484 1483 1482 1482 1482 1482 1482 1483 1483 1484 1484 1485 1486 1487 1489 1489 1490 1492 1492 1492 1493 1493 1493 1492 1494 1495 1496 1497 1498 1499 1501 1502 1502 1504 1505 1505 1504 1504 1505 1504 1505 1505 1507 1508 1508 1508 1509 1509 1509
1481 1481 1482 1482 1483 1482 1482 1481 1480 1480 1481 1481 1482 1482 1483 1483 1484 1485 1487 1489 1489 1489 1490 1490 1491 1491 1491 1492 1493 1494 1494 1495 1496 1498 1499 1500 1501 1502 1502 1501 1501 1503 1503 1503 1503 1505 1507 1506 1507 1508 1508 1508
1479 1480 1480 1480 1482 1482 1482 1481 1480 1479 1479 1479 1480 1480 1481 1482 1482 1482 1483 1485 1486 1486 1487 1487 1488 1488 1488 1489 1491 1491 1491 1492 1493 1494 1495 1497 1498 1499 1499 1498 1499 1500 1501 1502 1502 1503 1504 1504 1505 1506 1507 1507
1477 1478 1479 1479 1480 1480 1480 1481 1480 1479 1478 1477 1478 1478 1479 1479 1480 1480 1481 1482 1482 1483 1484 1485 1485 1486 1486 1487 1488 1488 1488 1488 1489 1491 1492 1494 1495 1496 1496 1496 1497 1498 1498 1499 1501 1501 1502 1502 1503 1504 1505 1505
1475 1475 1476 1476 1477 1478 1478 1479 1479 1478 1478 1477 1476 1476 1477 1477 1477 1478 1478 1479 1479 1479 1480 1481 1482 1483 1483 1484 1485 1486 1486 1486 1486 1487 1489 1490 1492 1492 1493 1494 1495 1495 1496 1497 1498 1499 1500 1500 1501 1502 1503 1504
1475 1474 1474 1473 1474 1474 1475 1476 1477 1477 1477 1476 1475 1474 1474 1475 1475 1475 1476 1476 1477 1476 1477 1478 1479 1479 1480 1480 1482 1484 1484 1484 1483 1484 1485 1487 1488 1489 1490 1491 1492 1493 1494 1494 1496 1497 1498 1498 1499 1500 1501 1502
1475 1474 1473 1472 1472 1471 1472 1472 1473 1474 1474 1475 1474 1472 1472 1472 1472 1473 1473 1473 1474 1473 1473 1474 1475 1475 1476 1477 1478 1480 1481 1482 1482 1481 1482 1483 1484 1485 1486 1487 1489 1490 1491 1492 1493 1494 1495 1496 1497 1498 1499 1500
1474 1473 1473 1472 1471 1470 1470 1469 1469 1470 1470 1471 1472 1471 1471 1470 1469 1469 1470 1470 1471 1470 1470 1470 1471 1472 1473 1473 1474 1476 1478 1479 1480 1480 1480 1480 1481 1482 1483 1484 1486 1487 1489 1490 1491 1491 1492 1493 1494 1495 1496 1497
1473 1472 1472 1471 1470 1469 1469 1468 1467 1467 1467 1467 1468 1469 1469 1469 1468 1467 1466 1467 1467 1468 1468 1467 1467 1468 1469 1469 1470 1472 1474 1476 1477 1479 1479 1478 1479 1480 1481 1482 1483 1485 1486 1487 1488 1489 1490 1491 1492 1493 1494 1495
1472 1471 1470 1470 1469 1468 1467 1466 1466 1465 1465 1464 1465 1465 1466 1466 1466 1465 1464 1464 1463 1464 1465 1465 1465 1465 1466 1467 1468 1469 1471 1472 1473 1475 1477 1477 1477 1478 1478 1479 1480 1482 1483 1484 1486 1487 1488 1489 1489 1491 1492 1493
1470 1469 1468 1468 1467 1467 1465 1465 1464 1463 1462 1462 1462 1462 1462 1462 1463 1463 1463 1462 1461 1461 1462 1462 1462 1461 1462 1464 1466 1467 1467 1469 1470 1471 1472 1473 1473 1474 1475 1476 1477 1478 1479 1481 1482 1484 1485 1486 1487 1488 1489 1490
1468 1466 1465 1465 1465 1465 1464 1463 1462 1461 1460 1459 1459 1459 1459 1459 1459 1459 1460 1460 1459 1459 1459 1459 1460 1459 1459 1461 1464 1464 1464 1465 1466 1467 1468 1468 1469 1470 1471 1473 1474 1475 1476 1477 1479 1480 1482 1483 1484 1485 1486 1487
1466 1464 1462 1462 1461 1461 1461 1461 1460 1460 1458 1457 1456 1455 1455 1456 1456 1456 1456 1457 1457 1457 1456 1456 1457 1457 1457 1459 1460 1461 1461 1462 1463 1463 1464 1465 1465 1466 1467 1469 1470 1471 1473 1474 1475 1477 1479 1480 1481 1482 1483 1484
1464 1462 1460 1459 1458 1457 1457 1457 1457 1457 1456 1455 1454 1453 1452 1452 1452 1452 1453 1453 1453 1453 1453 1453 1454 1454 1455 1456 1457 1458 1458 1458 1459 1460 1461 1462 1461 1462 1463 1465 1466 1467 1469 1471 1472 1473 1475 1476 1478 1479 1480 1482
1461 1459 1457 1456 1456 1455 1454 1453 1453 1453 1453 1452 1452 1451 1450 1448 1448 1448 1448 1449 1449 1449 1450 1450 1450 1451 1452 1452 1453 1453 1454 1453 1455 1457 1457 1458 1458 1459 1460 1461 1463 1464 1465 1467 1469 1470 1471 1473 1474 1476 1477 1479
1458 1456 1455 1453 1452 1452 1451 1450 1450 1449 1449 1449 1449 1448 1447 1445 1444 1444 1444 1445 1445 1445 1446 1446 1447 1448 1449 1449 1449 1449 1449 1449 1450 1451 1453 1454 1455 1455 1456 1457 1459 1461 1463 1465 1466 1467 1468 1469 1471 1472 1474 1475
1456 1454 1452 1450 1449 1448 1447 1447 1446 1445 1445 1445 1445 1445 1443 1442 1441 1441 1440 1440 1441 1441 1442 1442 1443 1443 1444 1446 1446 1445 1444 1444 1444 1446 1447 1449 1451 1452 1453 1455 1456 1458 1460 1462 1464 1465 1466 1466 1468 1469 1470 1471
1454 1452 1449 1448 1446 1445 1444 1443 1443 1442 1442 1441 1441 1441 1440 1439 1439 1438 1437 1437 1436 1436 1437 1438 1438 1439 1439 1440 1441 1441 1441 1441 1441 1442 1443 1445 1446 1448 1449 1450 1452 1454 1457 1459 1461 1462 1463 1464 1465 1466 1467 1468
1453 1451 1449 1446 1445 1443 1441 1440 1440 1439 1438 1438 1437 1437 1436 1436 1435 1435 1434 1434 1432 1432 1432 1433 1433 1434 1435 1435 1436 1437 1437 1438 1438 1438 1439 1440 1441 1442 1444 1445 1447 1449 1451 1452 1453 1456 1460 1462 1462 1463 1464 1464
1452 1450 1448 1446 1444 1442 1439 1437 1436 1436 1435 1435 1434 1433 1432 1432 1432 1431 1430 1430 1429 1428 1427 1427 1428 1429 1430 1431 1431 1432 1432 1433 1434 1435 1435 1436 1436 1437 1439 1441 1443 1443 1444 1445 1448 1453 1455 1455 1457 1459 1459 1458
1450 1448 1446 1444 1442 1440 1438 1435 1433 1432 1431 1431 1431 1430 1429 1429 1428 1428 1427 1427 1426 1425 1424 1423 1423 1423 1424 1425 1426 1427 1427 1428 1430 1431 1432 1432 1433 1434 1434 1435 1436 1437 1438 1440 1442 1446 1448 1450 1454 1453 1449 1450
1447 1445 1443 1441 1440 1438 1436 1434 1431 1429 1428 1428 1428 1427 1426 1426 1425 1425 1424 1423 1422 1422 1421 1420 1418 1418 1418 1419 1420 1421 1422 1422 1424 1426 1428 1429 1429 1429 1429 1430 1431 1432 1434 1434 1434 1435 1439 1444 1445 1443 1442 1446
1445 1443 1441 1439 1437 1435 1433 1431 1429 1427 1426 1425 1424 1424 1423 1422 1422 1421 1420 1419 1419 1418 1418 1417 1415 1414 1413 1414 1414 1415 1416 1417 1418 1419 1422 1424 1425 1426 1426 1427 1428 1428 1428 1429 1430 1430 1431 1433 1434 1435 1439 1444
1442 1440 1438 1437 1434 1433 1431 1428 1426 1425 1424 1422 1421 1420 1419 1419 1418 1417 1417 1416 1415 1415 1414 1413 1412 1411 1409 1409 1410 1410 1411 1411 1413 1414 1415 1417 1420 1422 1423 1425 1424 1424 1425 1425 1425 1425 1427 1430 1432 1433 1435 1436